This is the latest recevied weather packets stored in our database for station/object KF0EZB. If no packets are shown the sender has not sent any weather packets the latest 1 day(s).
| Time | Temp. | Humidity | Pressure | Rain* | Wind** | Luminosity | Snow |
|---|---|---|---|---|---|---|---|
| 1778124173 | 10° C | 74% | 1019.3 hPa | 0 mm | - | 0 W/m² | - |
| 1778123870 | 10° C | 74% | 1019.3 hPa | 0 mm | - | 0 W/m² | - |
| 1778123567 | 10° C | 74% | 1019.4 hPa | 0 mm | - | 0 W/m² | - |
| 1778123264 | 10° C | 74% | 1019.3 hPa | 0 mm | - | 0 W/m² | - |
| 1778122961 | 10° C | 74% | 1019.1 hPa | 0 mm | - | 0 W/m² | - |
| 1778122658 | 10° C | 73% | 1019.2 hPa | 0 mm | - | 0 W/m² | - |
| 1778122054 | 10.56° C | 73% | 1019.3 hPa | 0 mm | - | 0 W/m² | - |
| 1778121750 | 10.56° C | 73% | 1019.3 hPa | 0 mm | - | 0 W/m² | - |
| 1778121446 | 10.56° C | 72% | 1019.1 hPa | 0 mm | - | 0 W/m² | - |
| 1778121143 | 10.56° C | 72% | 1019.2 hPa | 0 mm | - | 0 W/m² | - |
| 1778120536 | 10.56° C | 72% | 1019 hPa | 0 mm | - | 0 W/m² | - |
| 1778120232 | 10.56° C | 71% | 1019.1 hPa | 0 mm | - | 0 W/m² | - |
| 1778119928 | 10.56° C | 71% | 1019.1 hPa | 0 mm | - | 0 W/m² | - |
| 1778119627 | 10.56° C | 71% | 1019 hPa | 0 mm | - | 0 W/m² | - |
| 1778118718 | 10.56° C | 70% | 1018.7 hPa | 0 mm | - | 0 W/m² | - |
| 1778118414 | 11.11° C | 69% | 1018.6 hPa | 0 mm | - | 0 W/m² | - |
| 1778118110 | 11.11° C | 68% | 1018.6 hPa | 0 mm | - | 0 W/m² | - |
| 1778117807 | 11.11° C | 68% | 1018.3 hPa | 0 mm | - | 0 W/m² | - |
| 1778117504 | 11.11° C | 68% | 1018.7 hPa | 0 mm | - | 0 W/m² | - |
| 1778116897 | 11.11° C | 67% | 1018.6 hPa | 0 mm | - | 4 W/m² | - |
| 1778116596 | 11.11° C | 66% | 1018.4 hPa | 0 mm | - | 6 W/m² | - |
| 1778115683 | 11.67° C | 65% | 1018.4 hPa | 0 mm | - | 18 W/m² | - |
| 1778115076 | 11.67° C | 64% | 1018.7 hPa | 0 mm | - | 24 W/m² | - |
| 1778114773 | 11.67° C | 64% | 1018.4 hPa | 0 mm | - | 21 W/m² | - |
| 1778113254 | 11.67° C | 61% | 1018.4 hPa | 0 mm | - | 31 W/m² | - |
* Rain latest hour (hover to see other rain measurements)
** Current wind speed in m/s (hover to see current wind gust speed)